�������l�o���
Date,Time,MP-1(��Sv/h),MP-2(��Sv/h),MP-3(��Sv/h),MP-4(��Sv/h),MP-5(��Sv/h),MP-6(��Sv/h),MP-7(��Sv/h),MP-8(��Sv/h),����,����(m/s),���J
2019/03/25,00:00,0.779,1.154,0.788,1.466,1.059,0.441,0.782,0.739,�k�k��,6.9,��
2019/03/25,00:10,0.777,1.155,0.788,1.467,1.060,0.439,0.781,0.740,�k�k��,5.1,��
2019/03/25,00:20,0.776,1.152,0.787,1.467,1.060,0.437,0.781,0.739,�k��,5.0,��
2019/03/25,00:30,0.777,1.151,0.787,1.466,1.060,0.440,0.781,0.740,�k�k��,4.6,��
2019/03/25,00:40,0.778,1.152,0.786,1.465,1.060,0.438,0.782,0.738,�k�k��,4.3,��
2019/03/25,00:50,0.777,1.154,0.787,1.467,1.061,0.438,0.781,0.740,�k��,4.0,��
2019/03/25,01:00,0.777,1.153,0.788,1.464,1.060,0.439,0.781,0.740,�k�k��,3.5,��
2019/03/25,01:10,0.777,1.150,0.788,1.464,1.060,0.440,0.782,0.740,�k�k��,5.0,��
2019/03/25,01:20,0.779,1.153,0.789,1.466,1.061,0.440,0.780,0.740,�k��,5.7,��
2019/03/25,01:30,0.778,1.153,0.788,1.466,1.059,0.439,0.781,0.743,�k��,6.1,��
2019/03/25,01:40,0.778,1.152,0.786,1.464,1.059,0.440,0.781,0.739,�k��,6.6,��
2019/03/25,01:50,0.778,1.152,0.787,1.466,1.059,0.440,0.779,0.740,�k��,7.2,��
2019/03/25,02:00,0.778,1.153,0.788,1.466,1.060,0.441,0.782,0.738,�k��,6.7,��
2019/03/25,02:10,0.779,1.151,0.789,1.465,1.059,0.440,0.781,0.740,�k��,6.5,��
2019/03/25,02:20,0.777,1.152,0.785,1.464,1.062,0.441,0.781,0.740,���k��,5.2,��
2019/03/25,02:30,0.778,1.151,0.787,1.464,1.060,0.439,0.781,0.740,���k��,3.9,��
2019/03/25,02:40,0.778,1.151,0.786,1.464,1.059,0.438,0.779,0.739,���k��,4.1,��
2019/03/25,02:50,0.778,1.153,0.789,1.463,1.059,0.439,0.780,0.740,���k��,3.3,��
2019/03/25,03:00,0.778,1.152,0.789,1.465,1.056,0.439,0.782,0.741,���k��,2.6,��
2019/03/25,03:10,0.777,1.150,0.786,1.465,1.060,0.439,0.781,0.740,���k��,3.0,��
2019/03/25,03:20,0.776,1.151,0.787,1.467,1.060,0.439,0.780,0.740,��,1.1,��
2019/03/25,03:30,0.777,1.152,0.787,1.464,1.057,0.438,0.780,0.740,���쐼,1.9,��
2019/03/25,03:40,0.778,1.151,0.788,1.463,1.059,0.439,0.783,0.739,���쐼,2.9,��
2019/03/25,03:50,0.777,1.153,0.787,1.465,1.059,0.441,0.780,0.740,��,5.9,��
2019/03/25,04:00,0.777,1.150,0.786,1.464,1.059,0.439,0.782,0.740,��,7.3,��
2019/03/25,04:10,0.778,1.149,0.789,1.466,1.059,0.440,0.782,0.740,��,9.2,��
2019/03/25,04:20,0.778,1.152,0.789,1.464,1.062,0.440,0.781,0.741,��,9.4,��
2019/03/25,04:30,0.777,1.152,0.786,1.466,1.060,0.440,0.782,0.740,��,9.1,��
2019/03/25,04:40,0.779,1.151,0.788,1.465,1.060,0.440,0.783,0.739,��,9.2,��
2019/03/25,04:50,0.776,1.150,0.788,1.462,1.057,0.440,0.783,0.741,��,8.9,��
2019/03/25,05:00,0.781,1.150,0.787,1.469,1.060,0.440,0.781,0.741,��,9.6,��
2019/03/25,05:10,0.778,1.153,0.786,1.468,1.057,0.440,0.783,0.740,��,8.7,��
2019/03/25,05:20,0.776,1.153,0.784,1.467,1.059,0.440,0.781,0.740,��,7.8,��
2019/03/25,05:30,0.779,1.153,0.786,1.466,1.059,0.441,0.782,0.739,��,6.4,��
2019/03/25,05:40,0.778,1.150,0.786,1.468,1.060,0.441,0.781,0.738,��,6.2,��
2019/03/25,05:50,0.778,1.153,0.787,1.468,1.058,0.441,0.782,0.742,���쐼,7.4,��
2019/03/25,06:00,0.777,1.149,0.788,1.465,1.058,0.441,0.782,0.740,���쐼,5.9,��
2019/03/25,06:10,0.778,1.150,0.787,1.465,1.060,0.440,0.781,0.740,���쐼,8.0,��
2019/03/25,06:20,0.778,1.151,0.789,1.468,1.060,0.440,0.783,0.740,���쐼,7.6,��
2019/03/25,06:30,0.777,1.151,0.788,1.468,1.060,0.442,0.783,0.740,���쐼,4.3,��
2019/03/25,06:40,0.777,1.151,0.790,1.468,1.060,0.441,0.781,0.738,���쐼,0.6,��
2019/03/25,06:50,0.778,1.149,0.787,1.467,1.058,0.441,0.783,0.740,�k��,0.6,��
2019/03/25,07:00,0.778,1.150,0.788,1.465,1.059,0.441,0.781,0.741,��쓌,0.9,��
2019/03/25,07:10,0.778,1.152,0.787,1.468,1.059,0.442,0.782,0.741,�쓌,2.0,��
2019/03/25,07:20,0.777,1.152,0.787,1.468,1.059,0.441,0.782,0.740,��쓌,4.1,��
2019/03/25,07:30,0.778,1.152,0.789,1.467,1.059,0.440,0.783,0.740,��쓌,5.1,��
2019/03/25,07:40,0.779,1.153,0.787,1.466,1.060,0.441,0.783,0.741,��쓌,5.6,��
2019/03/25,07:50,0.778,1.149,0.788,1.469,1.059,0.443,0.782,0.741,��쓌,5.4,��
2019/03/25,08:00,0.778,1.152,0.789,1.468,1.060,0.442,0.784,0.740,��쓌,5.2,��
2019/03/25,08:10,0.778,1.156,0.789,1.465,1.061,0.442,0.785,0.742,��쓌,5.4,��
2019/03/25,08:20,0.780,1.149,0.788,1.467,1.058,0.441,0.785,0.742,��쓌,6.6,��
2019/03/25,08:30,0.781,1.148,0.788,1.467,1.058,0.442,0.784,0.742,��쓌,9.4,��
2019/03/25,08:40,0.779,1.150,0.788,1.468,1.060,0.442,0.783,0.742,��쓌,9.1,��
2019/03/25,08:50,0.779,1.151,0.789,1.466,1.060,0.443,0.781,0.740,��쓌,7.9,��
2019/03/25,09:00,0.781,1.151,0.788,1.466,1.059,0.441,0.782,0.742,��쓌,9.8,��
2019/03/25,09:10,0.781,1.149,0.790,1.469,1.056,0.441,0.780,0.742,��쓌,10.0,��
2019/03/25,09:20,0.779,1.145,0.790,1.468,1.060,0.443,0.783,0.742,��쓌,10.8,��
2019/03/25,09:30,0.781,1.147,0.788,1.467,1.061,0.442,0.781,0.739,��쓌,11.3,��
2019/03/25,09:40,0.781,1.148,0.791,1.470,1.061,0.443,0.783,0.739,��쓌,9.9,��
2019/03/25,09:50,0.780,1.150,0.789,1.469,1.062,0.444,0.783,0.739,��쓌,11.8,��
2019/03/25,10:00,0.781,1.149,0.789,1.468,1.062,0.445,0.780,0.740,��쓌,10.8,��
2019/03/25,10:10,0.781,1.153,0.790,1.468,1.062,0.443,0.783,0.739,��쓌,10.7,��
2019/03/25,10:20,0.781,1.149,0.790,1.468,1.060,0.441,0.781,0.738,��쓌,9.2,��
2019/03/25,10:30,0.780,1.151,0.790,1.470,1.063,0.444,0.782,0.739,��쓌,11.1,��
2019/03/25,10:40,0.780,1.151,0.791,1.467,1.063,0.442,0.784,0.738,��쓌,10.8,��
2019/03/25,10:50,0.783,1.151,0.792,1.469,1.063,0.443,0.783,0.739,��,12.8,��
2019/03/25,11:00,0.783,1.151,0.789,1.466,1.065,0.442,0.784,0.741,��쓌,12.7,��
2019/03/25,11:10,0.784,1.152,0.787,1.470,1.061,0.442,0.784,0.740,��쓌,11.8,��
2019/03/25,11:20,0.782,1.151,0.790,1.470,1.062,0.443,0.782,0.739,��쓌,11.7,��
2019/03/25,11:30,0.781,1.155,0.793,1.469,1.062,0.444,0.784,0.739,��쓌,11.1,��
2019/03/25,11:40,0.782,1.152,0.791,1.468,1.062,0.441,0.783,0.740,��,10.5,��
2019/03/25,11:50,0.783,1.153,0.791,1.470,1.061,0.442,0.784,0.740,��쓌,9.7,��
2019/03/25,12:00,0.781,1.153,0.791,1.469,1.061,0.442,0.783,0.740,��쓌,10.6,��
2019/03/25,12:10,0.782,1.152,0.790,1.471,1.060,0.442,0.784,0.738,��,10.5,��
2019/03/25,12:20,0.781,1.152,0.791,1.471,1.063,0.443,0.783,0.739,��,9.6,��
2019/03/25,12:30,0.781,1.152,0.792,1.471,1.065,0.444,0.782,0.740,��,8.3,��
2019/03/25,12:40,0.783,1.154,0.790,1.471,1.066,0.444,0.780,0.739,��,9.8,��
2019/03/25,12:50,0.783,1.153,0.791,1.472,1.064,0.444,0.783,0.739,��,13.0,��
2019/03/25,13:00,0.781,1.151,0.788,1.470,1.062,0.445,0.782,0.740,��쓌,12.7,��
2019/03/25,13:10,0.782,1.151,0.788,1.470,1.061,0.445,0.783,0.738,��쓌,11.9,��
2019/03/25,13:20,0.782,1.150,0.788,1.468,1.064,0.444,0.782,0.740,��,9.4,��
2019/03/25,13:30,0.782,1.150,0.789,1.471,1.063,0.444,0.782,0.741,��,10.8,��
2019/03/25,13:40,0.781,1.152,0.789,1.469,1.063,0.444,0.783,0.739,��,12.4,��
2019/03/25,13:50,0.783,1.148,0.788,1.469,1.065,0.444,0.784,0.738,��,12.7,��
2019/03/25,14:00,0.782,1.151,0.788,1.471,1.062,0.444,0.785,0.741,��,10.7,��
2019/03/25,14:10,0.784,1.153,0.789,1.472,1.065,0.444,0.783,0.740,��,10.6,��
2019/03/25,14:20,0.781,1.150,0.789,1.470,1.060,0.444,0.783,0.739,��,9.6,��
2019/03/25,14:30,0.781,1.150,0.787,1.470,1.065,0.445,0.782,0.740,��,9.6,��
2019/03/25,14:40,0.782,1.150,0.790,1.472,1.065,0.446,0.783,0.740,��,11.4,��
2019/03/25,14:50,0.782,1.152,0.791,1.467,1.065,0.446,0.783,0.740,��,9.7,��
2019/03/25,15:00,0.783,1.153,0.791,1.471,1.064,0.446,0.783,0.739,��,12.0,��
2019/03/25,15:10,0.781,1.156,0.791,1.472,1.066,0.446,0.783,0.739,��,10.8,��
2019/03/25,15:20,0.783,1.156,0.788,1.471,1.064,0.447,0.784,0.740,��,12.1,��
2019/03/25,15:30,0.781,1.155,0.789,1.470,1.066,0.445,0.783,0.739,��,12.7,��
2019/03/25,15:40,0.781,1.158,0.791,1.470,1.065,0.444,0.784,0.740,��,11.1,��
2019/03/25,15:50,0.783,1.158,0.790,1.473,1.064,0.447,0.784,0.737,��,10.5,��
2019/03/25,16:00,0.783,1.159,0.790,1.472,1.065,0.444,0.784,0.740,��,11.8,��
2019/03/25,16:10,0.783,1.156,0.790,1.468,1.066,0.445,0.782,0.739,��쓌,13.9,��
2019/03/25,16:20,0.782,1.156,0.791,1.469,1.063,0.445,0.786,0.741,��,11.7,��
2019/03/25,16:30,0.783,1.158,0.789,1.468,1.065,0.446,0.782,0.740,��쓌,12.0,��
2019/03/25,16:40,0.782,1.158,0.792,1.472,1.064,0.446,0.782,0.741,��쓌,12.7,��
2019/03/25,16:50,0.785,1.158,0.790,1.472,1.064,0.445,0.783,0.743,��,11.7,��
2019/03/25,17:00,0.781,1.156,0.793,1.472,1.063,0.445,0.784,0.743,��,10.3,��
2019/03/25,17:10,0.784,1.156,0.791,1.469,1.065,0.446,0.782,0.743,��,8.4,��
2019/03/25,17:20,0.782,1.158,0.792,1.470,1.062,0.444,0.783,0.743,��,9.2,��
2019/03/25,17:30,0.784,1.159,0.792,1.470,1.065,0.445,0.783,0.742,��,9.0,��
2019/03/25,17:40,0.783,1.157,0.791,1.470,1.063,0.444,0.784,0.743,��,10.2,��
2019/03/25,17:50,0.785,1.161,0.795,1.471,1.067,0.446,0.784,0.743,��,8.6,��
2019/03/25,18:00,0.784,1.158,0.795,1.469,1.067,0.444,0.783,0.743,��,9.7,��
2019/03/25,18:10,0.785,1.158,0.794,1.469,1.067,0.445,0.786,0.743,��,7.1,��
2019/03/25,18:20,0.782,1.158,0.793,1.470,1.068,0.445,0.783,0.742,��,7.3,��
2019/03/25,18:30,0.783,1.159,0.791,1.467,1.068,0.446,0.785,0.743,��,8.0,��
2019/03/25,18:40,0.783,1.158,0.791,1.470,1.066,0.445,0.786,0.741,��,7.2,��
2019/03/25,18:50,0.784,1.157,0.793,1.472,1.067,0.446,0.785,0.741,��,7.2,��
2019/03/25,19:00,0.783,1.158,0.793,1.470,1.066,0.445,0.786,0.741,��,7.7,��
2019/03/25,19:10,0.784,1.158,0.794,1.471,1.065,0.446,0.786,0.741,��쐼,6.3,��
2019/03/25,19:20,0.784,1.158,0.792,1.469,1.067,0.446,0.786,0.742,��쐼,6.1,��
2019/03/25,19:30,0.782,1.157,0.792,1.471,1.064,0.445,0.786,0.740,��쐼,5.2,��
2019/03/25,19:40,0.784,1.158,0.794,1.469,1.068,0.444,0.785,0.743,��쐼,5.3,��
2019/03/25,19:50,0.784,1.157,0.793,1.470,1.065,0.445,0.785,0.742,�쐼,5.3,��
2019/03/25,20:00,0.783,1.159,0.792,1.472,1.065,0.445,0.785,0.742,�쐼,6.3,��
2019/03/25,20:10,0.785,1.158,0.793,1.469,1.066,0.445,0.784,0.742,��쐼,6.3,��
2019/03/25,20:20,0.786,1.157,0.792,1.470,1.067,0.445,0.784,0.743,�쐼,5.8,��
2019/03/25,20:30,0.784,1.155,0.792,1.472,1.066,0.445,0.785,0.742,�쐼,5.0,��
2019/03/25,20:40,0.783,1.155,0.792,1.471,1.066,0.445,0.784,0.740,�쐼,5.4,��
2019/03/25,20:50,0.784,1.159,0.791,1.468,1.065,0.443,0.784,0.742,�쐼,5.6,��
2019/03/25,21:00,0.786,1.156,0.794,1.469,1.066,0.445,0.784,0.742,��쐼,4.6,��
2019/03/25,21:10,0.781,1.154,0.793,1.470,1.064,0.445,0.783,0.742,��쐼,5.3,��
2019/03/25,21:20,0.784,1.156,0.793,1.468,1.066,0.444,0.786,0.741,��쐼,5.4,��
2019/03/25,21:30,0.784,1.155,0.790,1.470,1.064,0.445,0.784,0.742,�쐼,5.6,��
2019/03/25,21:40,0.784,1.155,0.793,1.468,1.064,0.445,0.785,0.741,�쐼,5.2,��
2019/03/25,21:50,0.784,1.156,0.794,1.471,1.066,0.444,0.786,0.741,���쐼,5.5,��
2019/03/25,22:00,0.785,1.156,0.793,1.470,1.066,0.445,0.783,0.743,���쐼,6.0,��
2019/03/25,22:10,0.784,1.158,0.792,1.471,1.064,0.444,0.785,0.740,���쐼,5.9,��
2019/03/25,22:20,0.784,1.155,0.792,1.470,1.065,0.444,0.784,0.742,���쐼,6.9,��
2019/03/25,22:30,0.788,1.157,0.793,1.471,1.067,0.445,0.785,0.741,���쐼,7.7,��
2019/03/25,22:40,0.784,1.157,0.792,1.469,1.068,0.445,0.783,0.742,���쐼,7.3,��
2019/03/25,22:50,0.784,1.156,0.794,1.470,1.064,0.444,0.786,0.742,���쐼,7.1,��
2019/03/25,23:00,0.784,1.157,0.793,1.471,1.065,0.445,0.785,0.742,���쐼,5.7,��
2019/03/25,23:10,0.784,1.155,0.792,1.471,1.067,0.446,0.785,0.742,���쐼,4.9,��
2019/03/25,23:20,0.785,1.153,0.793,1.474,1.065,0.445,0.784,0.742,���쐼,4.4,��
2019/03/25,23:30,0.786,1.155,0.792,1.470,1.065,0.444,0.786,0.743,��,3.8,��
2019/03/25,23:40,0.785,1.155,0.793,1.471,1.067,0.445,0.786,0.741,��,2.8,��
2019/03/25,23:50,0.785,1.156,0.792,1.470,1.062,0.446,0.784,0.742,-,CALM,��
